RH
25 23 22 22 22 21 20 20 19 18 18 18 18 17 17 17 18 18 19 19 19 19 18 17 18 18 18 18 17 16 15 14 13 13 14 17 20 20 21 23 24 25
24 22 21 22 22 22 21 21 20 19 19 19 19 18 18 18 18 19 20 20 20 19 19 19 19 20 21 22 21 18 15 14 14 14 14 15 19 21 20 21 21 21
23 21 20 20 21 23 22 22 22 21 20 20 20 19 20 19 20 20 20 20 20 20 20 20 20 21 23 24 24 22 19 17 16 15 15 15 17 20 21 20 19 18
23 21 20 21 22 24 23 22 22 22 21 21 20 20 20 21 21 21 21 21 21 21 22 22 22 22 23 24 26 26 23 21 19 18 18 16 16 17 18 20 19 17
24 23 23 23 22 23 23 23 23 22 22 22 21 21 21 21 22 21 21 21 21 22 23 23 23 23 23 23 25 25 24 24 23 21 20 17 16 16 15 17 19 19
26 25 24 23 22 22 23 22 23 23 23 22 21 21 21 21 21 20 20 20 22 23 24 24 25 25 24 24 24 24 24 25 25 25 24 19 16 16 15 16 18 20
29 29 28 26 24 24 24 23 23 23 23 22 22 22 22 21 20 20 20 22 24 25 26 26 26 27 27 27 26 24 24 24 24 24 26 24 20 16 15 15 17 19
36 34 30 28 26 26 25 24 23 23 23 22 22 22 21 20 19 20 22 24 25 25 26 26 27 28 28 29 28 27 25 25 25 24 25 26 25 21 17 16 16 17
38 33 29 27 26 25 25 24 23 23 23 22 22 21 20 19 19 20 22 24 24 24 25 26 27 27 28 28 29 28 27 26 26 26 26 27 27 24 21 20 19 18
35 31 28 28 27 25 24 24 24 24 23 22 21 20 19 18 19 20 22 23 23 24 25 26 27 27 28 28 28 28 28 28 29 30 30 30 29 28 27 27 26 24
34 31 30 29 28 26 24 24 25 24 24 22 20 19 18 18 19 20 21 22 23 24 25 26 27 28 28 28 29 29 30 30 31 31 32 32 32 32 31 30 30 29
34 32 32 31 29 27 26 25 26 25 24 21 19 19 19 20 20 20 20 21 22 23 25 27 27 28 28 29 29 30 31 31 32 32 32 32 33 33 33 32 31 31
35 34 34 32 30 29 27 27 27 25 23 21 20 20 21 21 21 21 21 21 21 23 25 27 27 28 28 28 29 29 30 31 31 31 32 32 33 33 33 33 32 31
38 37 36 35 33 31 30 29 28 25 22 22 22 21 21 21 21 22 22 22 23 24 26 27 27 27 27 28 29 30 31 31 31 32 32 33 33 33 34 33 32 32
42 41 40 39 36 34 33 30 27 25 24 23 23 22 22 22 22 22 23 24 25 26 26 27 26 25 26 28 30 32 32 32 32 34 34 34 34 34 34 34 33 32
47 45 43 43 40 37 34 31 28 26 24 24 23 22 23 23 23 24 25 26 27 27 27 27 26 26 26 27 29 32 34 34 34 34 34 35 34 34 34 33 33 32
51 48 47 46 43 39 36 32 29 27 25 25 24 24 25 24 25 27 27 28 28 27 27 27 27 28 29 29 31 33 34 35 34 35 35 34 34 34 33 33 33 32
53 51 49 47 44 41 37 33 31 28 27 25 26 26 26 25 26 28 29 29 28 27 27 28 28 29 29 31 33 34 35 34 33 33 33 33 33 33 33 33 33 33
56 53 51 48 44 41 38 34 31 30 28 27 28 28 27 27 29 30 30 29 29 29 28 28 29 29 30 33 35 36 36 36 35 34 33 33 33 33 34 34 34 34
58 55 52 48 44 41 38 35 32 31 30 30 30 29 30 32 32 31 31 30 29 29 29 28 29 30 32 35 36 37 37 37 37 36 35 35 36 36 37 37 36 37
60 58 54 49 45 41 38 35 34 33 32 32 33 34 34 34 33 32 31 30 29 29 30 30 31 31 34 36 37 37 38 38 37 37 37 38 39 40 40 40 40 40
64 61 56 49 43 40 38 37 37 36 35 36 37 36 35 34 33 31 30 29 29 29 30 30 32 34 36 37 37 38 38 38 39 39 39 39 40 39 39 39 38 39
69 64 57 49 44 43 42 41 40 39 38 38 38 37 36 34 32 30 30 30 30 30 31 32 34 37 37 38 39 39 39 40 41 40 39 38 37 36 36 36 36 37
70 64 56 50 47 47 45 43 43 41 40 39 38 36 34 32 31 31 30 29 30 31 33 34 36 39 40 42 42 42 41 41 40 39 38 37 37 36 37 36 36 37
67 60 54 52 50 48 47 46 44 42 40 39 36 34 33 31 30 29 27 27 29 31 34 36 38 40 41 43 43 45 44 44 43 42 41 41 40 40 40 40 40 40
63 57 53 52 52 51 49 46 43 41 39 36 34 33 32 30 28 25 25 27 29 31 33 35 38 40 42 43 45 47 48 48 46 45 45 45 44 44 43 43 43 44